Location: Township of South Roscoe
(37.9570°N, 100.1180°W)
Time: 10:03:36
(UTC+00:00)

CAS-4B - Visible Passes

Search period start: 04 July 2022 00:00
Search period end: 14 July 2022 00:00
Orbit: 524 x 536 km, 43.0° (Epoch: 03 July)

Date Brightness Start Highest point End Pass type
(mag) Time Alt. Az. Time Alt. Az. Time Alt. Az.
04 Jul ? 08:29:51 51° NNW 08:30:03 52° NNW 08:34:00 10° ENE visible
04 Jul ? 10:06:40 10° WNW 10:10:30 40° N 10:14:20 10° ENE visible
05 Jul ? 08:17:39 47° N 08:17:39 47° N 08:21:33 10° ENE visible
05 Jul ? 09:54:15 10° WNW 09:58:06 41° N 10:01:58 10° ENE visible
06 Jul ? 08:05:30 43° N 08:05:30 43° N 08:09:07 10° ENE visible
06 Jul ? 09:41:50 10° WNW 09:45:42 43° N 09:49:35 10° E visible
07 Jul ? 07:53:25 39° NNE 07:53:25 39° NNE 07:56:41 10° ENE visible
07 Jul ? 09:29:24 10° WNW 09:33:18 46° NNE 09:37:12 10° E visible
08 Jul ? 07:41:28 33° NNE 07:41:28 33° NNE 07:44:15 10° ENE visible
08 Jul ? 09:16:56 10° WNW 09:20:53 51° NNE 09:24:49 10° E visible
09 Jul ? 07:29:49 25° NE 07:29:49 25° NE 07:31:50 10° ENE visible
09 Jul ? 09:05:03 14° WNW 09:08:27 56° NNE 09:12:26 10° E visible
09 Jul ? 10:44:36 10° WNW 10:48:24 40° SSW 10:52:11 10° SE visible
10 Jul ? 03:51:43 10° SSW 03:53:15 20° SSW 03:53:15 20° SSW visible
10 Jul ? 07:18:45 14° ENE 07:18:45 14° ENE 07:19:25 10° ENE visible
10 Jul ? 08:54:02 28° NW 08:56:01 64° NNE 09:00:01 10° E visible
10 Jul ? 10:32:14 10° W 10:35:52 32° SW 10:39:30 10° SSE visible
11 Jul ? 03:39:03 10° SW 03:42:50 41° SSE 03:44:34 26° E visible
11 Jul ? 05:18:50 10° W 05:19:57 18° W 05:19:57 18° W visible
11 Jul ? 08:44:07 61° ENE 08:44:07 61° ENE 08:47:35 10° ESE visible
11 Jul ? 10:19:55 10° W 10:23:20 26° SW 10:26:44 10° SSE visible
12 Jul ? 03:26:25 10° SW 03:30:19 51° SSE 03:34:14 10° ENE visible
12 Jul ? 05:06:26 10° W 05:09:59 48° NNW 05:09:59 48° NNW visible
12 Jul ? 10:10:49 21° SW 10:10:49 21° SW 10:13:52 10° SSE visible
13 Jul ? 03:13:50 10° SW 03:17:48 62° SSE 03:21:47 10° ENE visible
13 Jul ? 04:54:02 10° W 04:57:55 46° N 04:58:58 36° NNE visible
